Showing default

INTELSAT 37E, 42950

Orbit data source: Space-Track

INTELSAT 37E, 42950 is a payload satellite owned by Intelsat SA (US) (US) in GEO that was launched on Fri, 29 Sep 2017 UTC via an ARIANE 5ECA launch vehicle from the French Guiana (FRGUI). Payload-class satellites include a variety of spacecraft equipped with specific instruments for various scientific and technological missions. These include communications satellites like Starlink; space stations such as the ISS; scientific satellites like the Hubble; Earth observation satellites from companies like Planet Labs, Umbra, and HawkEye 360; GPS; miniature CubeSats for education and research; and military/defense satellites.

Not visible in the next 10 days
Identifier
42950, 2017-059A
Orbit
GEO
Country
Flag of UnknownUnknown / ITSO
Related business
Manufacturer
Boeing/ES
Mission
Operational Commercial Communications
Bus & Motor
BSS-702MP, BT-4
Mass
6,538 kg wet, ~2,950 kg dry
Launch date (UTC)
2017-09-29 (8 years ago)
Launch vehicle
ARIANE 5ECA
Launch site
French Guiana (FRGUI)
Object type
Payload
Rocket body
Debris
Shape & HBR
Box + 2 Pan, 22.0 m
Radar Cross Section
65.369 m², Large (>1 m²)

Expand to show TLE details & history
Last TLE update: 12 hours ago

TLE from 12 hours ago
0 INTELSAT 37E
1 42950U 17059A   25293.61940225  .00000000  00000-0  00000-0 0  9992
2 42950   0.0184 233.2257 0002765 336.2449  24.8411  1.00270425 29664
Epoch: 2025-10-20T14:51Z
TLE epoch observation values (Epoch: 2025-10-20T14:51:56.354Z)
Latitude
0.00291°
Longitude
-18.00661°
Altitude
35,775.831 km
Speed
3.075 km/s
True Right ascension
15h 37m 11s
True Declination
0° 00' 10"
Sunlit
Object was in daylight at epoch
Visualization orbit readout
Latitude
Unknown
Longitude
Unknown
Altitude
Unknown
Speed
Unknown
Apparent Right ascension
Unknown
Apparent Declination
Unknown
Sunlit
N/A
Visualization observer readout
Local Sidereal Time
22:01:15
Azimuth
Unknown
Elevation
Unknown
Doppler factor
Unknown
Orbital elements
Apogee altitude
35,799.706 km
Perigee altitude
35,776.388 km
Semi-major axis
42,166.184 km
Eccentricity
0.00028
Inclination
0.0184°
RAAN
233.2257°
Arg. of periapsis
336.2449°
True anomaly
24.85441°
Mean anomaly
24.8411°
Eccentric anomaly
24.84776°
Mean motion
0.25067 °/min
Orbital period
1,436.17 mins
BSTAR
0
Loading maneuver chart data...
Computing Atmospheric mass density...
Loading historical data...
Loading historical data...
Loading historical data...
Loading historical data...
Loading historical data...
Loading historical data...
Loading historical data...
Other satellites on launch #59 in the year 2017 (2017-09-29 UTC)

Documentation

Showing up to 5 results
|